OEFVS LSZR-LQBK

Flight info

Callsign OEFVS
Flight time 1h 8m
Altitude 37000
Route BEMKI T23 BIRGI DCT NIPEL DCT NOVLO
Aircraft P180/L-SBDFGM3RWXY/LB1

Departure

Time 2026-05-04 18:25
Airport Sankt Gallen Altenrhein Airport (LSZR)

Arrival

Time 2026-05-04 19:33
Airport Banja Luka International Airport (LQBK)
Time Latitude Longitude Altitude Speed Heading
2026-05-04 18:09 47.48726 9.55210 1308 ft 0 kts
2026-05-04 18:18 47.48728 9.55210 1306 ft 2 kts
2026-05-04 18:18 47.48746 9.55239 1314 ft 4 kts 95°
2026-05-04 18:19 47.48725 9.55403 1313 ft 11 kts 98°
2026-05-04 18:19 47.48714 9.55526 1314 ft 13 kts 97°
2026-05-04 18:19 47.48700 9.55662 1315 ft 14 kts 99°
2026-05-04 18:20 47.48684 9.55816 1308 ft 17 kts 98°
2026-05-04 18:20 47.48666 9.55997 1310 ft 18 kts 99°
2026-05-04 18:20 47.48647 9.56174 1309 ft 15 kts 98°
2026-05-04 18:20 47.48632 9.56318 1307 ft 13 kts 98°
2026-05-04 18:21 47.48617 9.56470 1306 ft 15 kts 98°
2026-05-04 18:21 47.48604 9.56594 1307 ft 13 kts 98°
2026-05-04 18:21 47.48589 9.56736 1307 ft 13 kts 97°
2026-05-04 18:21 47.48575 9.56881 1307 ft 14 kts 99°
2026-05-04 18:22 47.48564 9.56991 1307 ft 9 kts 98°
2026-05-04 18:22 47.48550 9.57076 1308 ft 10 kts 129°
2026-05-04 18:22 47.48485 9.57079 1309 ft 8 kts 187°
2026-05-04 18:22 47.48476 9.57078 1309 ft 0 kts 187°
2026-05-04 18:23 47.48469 9.57076 1309 ft 5 kts 188°
2026-05-04 18:23 47.48414 9.57057 1311 ft 9 kts 222°
2026-05-04 18:23 47.48409 9.57002 1309 ft 0 kts 278°
2026-05-04 18:24 47.48409 9.56999 1309 ft 6 kts 278°
2026-05-04 18:24 47.48457 9.56536 1304 ft 86 kts 278°
2026-05-04 18:24 47.48577 9.55417 1436 ft 123 kts 278°
2026-05-04 18:24 47.48667 9.54555 1737 ft 134 kts 279°
2026-05-04 18:25 47.48964 9.52518 2489 ft 167 kts 284°
2026-05-04 18:25 47.49282 9.51457 3044 ft 169 kts 306°
2026-05-04 18:25 47.50165 9.50323 3924 ft 171 kts 329°
2026-05-04 18:25 47.51336 9.49864 4696 ft 180 kts 358°
2026-05-04 18:26 47.52561 9.50289 5461 ft 186 kts 28°
2026-05-04 18:26 47.53547 9.51553 6199 ft 191 kts 51°
2026-05-04 18:26 47.54428 9.53026 6952 ft 192 kts 50°
2026-05-04 18:26 47.55341 9.54497 7686 ft 196 kts 50°
2026-05-04 18:27 47.56261 9.56009 8413 ft 200 kts 50°
2026-05-04 18:27 47.57206 9.57554 9128 ft 204 kts 50°
2026-05-04 18:27 47.58168 9.59124 9796 ft 207 kts 51°
2026-05-04 18:27 47.59143 9.60721 10353 ft 214 kts 50°
2026-05-04 18:28 47.60157 9.62434 10798 ft 223 kts 56°
2026-05-04 18:28 47.60741 9.64519 11408 ft 220 kts 78°
2026-05-04 18:28 47.61144 9.66722 11957 ft 224 kts 77°
2026-05-04 18:28 47.61592 9.68973 12529 ft 226 kts 76°
2026-05-04 18:29 47.62048 9.71214 13086 ft 228 kts 76°
2026-05-04 18:29 47.62497 9.73451 13616 ft 230 kts 76°
2026-05-04 18:29 47.62957 9.75777 14087 ft 233 kts 76°
2026-05-04 18:29 47.63412 9.78060 14507 ft 235 kts 76°
2026-05-04 18:30 47.64354 9.82797 15358 ft 240 kts 76°
2026-05-04 18:30 47.64828 9.85184 15781 ft 243 kts 76°
2026-05-04 18:30 47.65131 9.87592 16184 ft 240 kts 98°
2026-05-04 18:31 47.64666 9.89925 16603 ft 236 kts 116°
2026-05-04 18:31 47.64155 9.92264 17003 ft 241 kts 108°
2026-05-04 18:31 47.63824 9.94716 17399 ft 244 kts 104°
2026-05-04 18:31 47.63521 9.97199 17790 ft 246 kts 105°
2026-05-04 18:32 47.63178 9.99687 18204 ft 247 kts 107°
2026-05-04 18:32 47.62823 10.02187 18557 ft 249 kts 106°
2026-05-04 18:32 47.62474 10.04709 18885 ft 251 kts 106°
2026-05-04 18:32 47.62123 10.07246 19251 ft 252 kts 106°
2026-05-04 18:33 47.61768 10.09799 19603 ft 253 kts 106°
2026-05-04 18:33 47.61410 10.12368 19939 ft 255 kts 106°
2026-05-04 18:33 47.61050 10.14956 20288 ft 257 kts 106°
2026-05-04 18:33 47.60686 10.17556 20639 ft 259 kts 106°
2026-05-04 18:34 47.60320 10.20174 20992 ft 260 kts 106°
2026-05-04 18:34 47.59950 10.22810 21351 ft 262 kts 106°
2026-05-04 18:34 47.59577 10.25456 21726 ft 263 kts 106°
2026-05-04 18:34 47.59203 10.28116 22103 ft 265 kts 106°
2026-05-04 18:35 47.58826 10.30796 22505 ft 266 kts 106°
2026-05-04 18:35 47.58446 10.33492 22887 ft 268 kts 106°
2026-05-04 18:35 47.58060 10.36207 23243 ft 271 kts 106°
2026-05-04 18:35 47.57677 10.38909 23611 ft 272 kts 106°
2026-05-04 18:36 47.57287 10.41652 23953 ft 273 kts 106°
2026-05-04 18:36 47.56898 10.44395 24294 ft 273 kts 106°
2026-05-04 18:36 47.56498 10.47197 24621 ft 275 kts 106°
2026-05-04 18:36 47.56102 10.49975 24972 ft 276 kts 106°
2026-05-04 18:37 47.55709 10.52726 25300 ft 277 kts 105°
2026-05-04 18:37 47.55309 10.55529 25623 ft 279 kts 105°
2026-05-04 18:37 47.54902 10.58338 25965 ft 280 kts 105°
2026-05-04 18:37 47.54494 10.61169 26286 ft 281 kts 105°
2026-05-04 18:38 47.54085 10.64003 26668 ft 282 kts 105°
2026-05-04 18:38 47.53677 10.66849 27038 ft 284 kts 105°
2026-05-04 18:38 47.53262 10.69716 27411 ft 285 kts 105°
2026-05-04 18:38 47.52843 10.72593 27807 ft 287 kts 105°
2026-05-04 18:39 47.52423 10.75488 28192 ft 289 kts 105°
2026-05-04 18:39 47.52001 10.78397 28632 ft 288 kts 105°
2026-05-04 18:39 47.51580 10.81290 29117 ft 288 kts 105°
2026-05-04 18:39 47.51155 10.84180 29591 ft 288 kts 105°
2026-05-04 18:40 47.50715 10.87181 29478 ft 308 kts 105°
2026-05-04 18:40 47.50254 10.90311 29465 ft 323 kts 105°
2026-05-04 18:40 47.49771 10.93613 29455 ft 334 kts 104°
2026-05-04 18:40 47.49270 10.97037 29454 ft 345 kts 104°
2026-05-04 18:41 47.48743 11.00607 29452 ft 356 kts 104°
2026-05-04 18:41 47.48218 11.04143 29930 ft 349 kts 105°
2026-05-04 18:41 47.47721 11.07519 31115 ft 322 kts 105°
2026-05-04 18:41 47.47253 11.10705 31813 ft 315 kts 105°
2026-05-04 18:42 47.46775 11.13868 32201 ft 315 kts 106°
2026-05-04 18:42 47.46301 11.17029 32624 ft 315 kts 106°
2026-05-04 18:42 47.45832 11.20179 33048 ft 314 kts 106°
2026-05-04 18:42 47.45361 11.23332 33447 ft 313 kts 106°
2026-05-04 18:43 47.44890 11.26468 33877 ft 313 kts 106°
2026-05-04 18:43 47.44418 11.29601 34248 ft 312 kts 106°
2026-05-04 18:43 47.43946 11.32735 34552 ft 313 kts 106°
2026-05-04 18:43 47.43471 11.35877 34861 ft 314 kts 106°
2026-05-04 18:44 47.42989 11.39057 34938 ft 322 kts 106°
2026-05-04 18:44 47.41984 11.45675 34970 ft 338 kts 106°
2026-05-04 18:45 47.40925 11.52641 34948 ft 356 kts 105°
2026-05-04 18:45 47.39806 11.59936 34950 ft 371 kts 105°
2026-05-04 18:46 47.38635 11.67496 34956 ft 383 kts 106°
2026-05-04 18:46 47.37461 11.75243 35078 ft 388 kts 105°
2026-05-04 18:46 47.36864 11.79067 35201 ft 388 kts 105°
2026-05-04 18:47 47.36248 11.82945 35329 ft 387 kts 105°
2026-05-04 18:47 47.35645 11.86814 35458 ft 387 kts 105°
2026-05-04 18:47 47.35043 11.90689 35584 ft 386 kts 106°
2026-05-04 18:47 47.34162 11.94403 35718 ft 383 kts 117°
2026-05-04 18:48 47.32888 11.97823 35844 ft 379 kts 124°
2026-05-04 18:48 47.31457 12.01080 35976 ft 378 kts 127°
2026-05-04 18:48 47.30014 12.04329 36104 ft 378 kts 124°
2026-05-04 18:48 47.28713 12.07693 36236 ft 379 kts 121°
2026-05-04 18:49 47.27461 12.11106 36364 ft 377 kts 122°
2026-05-04 18:49 47.26145 12.14436 36496 ft 375 kts 124°
2026-05-04 18:49 47.24800 12.17725 36632 ft 375 kts 123°
2026-05-04 18:49 47.23486 12.21035 36763 ft 374 kts 123°
2026-05-04 18:50 47.22194 12.24359 36909 ft 373 kts 122°
2026-05-04 18:50 47.19567 12.30966 36997 ft 376 kts 123°
2026-05-04 18:51 47.16913 12.37642 36996 ft 380 kts 123°
2026-05-04 18:51 47.14235 12.44366 36995 ft 382 kts 123°
2026-05-04 18:52 47.11533 12.51121 37005 ft 387 kts 123°
2026-05-04 18:52 47.08808 12.57932 37006 ft 384 kts 123°
2026-05-04 18:53 47.06087 12.64704 37021 ft 387 kts 123°
2026-05-04 18:53 47.03331 12.71552 37020 ft 392 kts 123°
2026-05-04 18:54 47.00551 12.78440 37027 ft 394 kts 123°
2026-05-04 18:54 46.97747 12.85362 37031 ft 395 kts 123°
2026-05-04 18:55 46.94949 12.92286 37033 ft 395 kts 123°
2026-05-04 18:55 46.90728 13.02638 37037 ft 397 kts 123°
2026-05-04 18:56 46.87898 13.09578 37052 ft 397 kts 123°
2026-05-04 18:56 46.85053 13.16527 37042 ft 398 kts 123°
2026-05-04 18:57 46.82207 13.23464 37039 ft 398 kts 123°
2026-05-04 18:57 46.79358 13.30398 37047 ft 397 kts 123°
2026-05-04 18:58 46.76504 13.37303 37056 ft 397 kts 123°
2026-05-04 18:58 46.73649 13.44223 37047 ft 398 kts 123°
2026-05-04 18:59 46.70789 13.51119 37046 ft 398 kts 123°
2026-05-04 18:59 46.67919 13.58027 37041 ft 399 kts 123°
2026-05-04 19:00 46.65036 13.64947 37038 ft 400 kts 123°
2026-05-04 19:00 46.62159 13.71839 37040 ft 401 kts 123°
2026-05-04 19:01 46.59261 13.78767 37041 ft 401 kts 123°
2026-05-04 19:01 46.56353 13.85690 37034 ft 401 kts 123°
2026-05-04 19:02 46.53441 13.92614 37035 ft 401 kts 123°
2026-05-04 19:02 46.50511 13.99550 37036 ft 402 kts 123°
2026-05-04 19:03 46.47596 14.06503 37018 ft 403 kts 123°
2026-05-04 19:03 46.44771 14.13478 37014 ft 404 kts 123°
2026-05-04 19:04 46.41876 14.20478 37014 ft 405 kts 123°
2026-05-04 19:04 46.38992 14.27483 37046 ft 405 kts 123°
2026-05-04 19:05 46.36094 14.34492 37046 ft 405 kts 123°
2026-05-04 19:05 46.33194 14.41493 37048 ft 405 kts 123°
2026-05-04 19:06 46.30777 14.47315 37042 ft 405 kts 123°
2026-05-04 19:06 46.27875 14.54277 37043 ft 405 kts 123°
2026-05-04 19:07 46.24965 14.61255 37043 ft 406 kts 123°
2026-05-04 19:07 46.22044 14.68225 37041 ft 406 kts 123°
2026-05-04 19:08 46.19123 14.75205 37042 ft 406 kts 123°
2026-05-04 19:08 46.16194 14.82162 37040 ft 405 kts 123°
2026-05-04 19:09 46.13269 14.89105 37038 ft 405 kts 123°
2026-05-04 19:09 46.10351 14.96006 37019 ft 405 kts 123°
2026-05-04 19:10 46.07907 15.01775 37035 ft 405 kts 123°
2026-05-04 19:10 46.04459 15.09897 36489 ft 407 kts 123°
2026-05-04 19:11 46.02982 15.13362 35957 ft 404 kts 123°
2026-05-04 19:11 46.01518 15.16798 35419 ft 402 kts 122°
2026-05-04 19:11 46.00056 15.20229 34889 ft 401 kts 122°
2026-05-04 19:11 45.98595 15.23646 34352 ft 402 kts 122°
2026-05-04 19:12 45.97125 15.27085 33793 ft 404 kts 122°
2026-05-04 19:12 45.94201 15.33913 32716 ft 403 kts 122°
2026-05-04 19:12 45.92730 15.37340 32178 ft 403 kts 122°
2026-05-04 19:13 45.91257 15.40767 31643 ft 403 kts 122°
2026-05-04 19:13 45.89782 15.44191 31118 ft 403 kts 122°
2026-05-04 19:13 45.88307 15.47616 30585 ft 404 kts 122°
2026-05-04 19:13 45.86827 15.51049 30046 ft 404 kts 122°
2026-05-04 19:14 45.85353 15.54464 29478 ft 401 kts 122°
2026-05-04 19:14 45.83890 15.57844 28951 ft 397 kts 122°
2026-05-04 19:14 45.82436 15.61206 28431 ft 395 kts 122°
2026-05-04 19:14 45.80995 15.64533 27913 ft 391 kts 122°
2026-05-04 19:15 45.79568 15.67817 27537 ft 384 kts 122°
2026-05-04 19:15 45.78163 15.71049 27066 ft 380 kts 122°
2026-05-04 19:15 45.76767 15.74262 26569 ft 380 kts 122°
2026-05-04 19:15 45.75370 15.77472 26072 ft 379 kts 122°
2026-05-04 19:16 45.73977 15.80669 25571 ft 377 kts 122°
2026-05-04 19:16 45.72587 15.83850 25079 ft 375 kts 122°
2026-05-04 19:16 45.71206 15.87008 24586 ft 374 kts 122°
2026-05-04 19:16 45.69826 15.90145 24103 ft 372 kts 122°
2026-05-04 19:17 45.68466 15.93276 23612 ft 370 kts 122°
2026-05-04 19:17 45.67112 15.96391 23084 ft 366 kts 122°
2026-05-04 19:17 45.65757 15.99448 22606 ft 362 kts 123°
2026-05-04 19:17 45.64420 16.02470 22124 ft 358 kts 122°
2026-05-04 19:18 45.63111 16.05474 21660 ft 354 kts 122°
2026-05-04 19:18 45.61801 16.08454 21195 ft 352 kts 123°
2026-05-04 19:18 45.60501 16.11397 20731 ft 349 kts 123°
2026-05-04 19:18 45.59208 16.14320 20270 ft 346 kts 124°
2026-05-04 19:19 45.57928 16.17214 19816 ft 343 kts 123°
2026-05-04 19:19 45.56684 16.20043 19371 ft 339 kts 123°
2026-05-04 19:19 45.55426 16.22878 18927 ft 336 kts 123°
2026-05-04 19:19 45.54164 16.25724 18479 ft 334 kts 123°
2026-05-04 19:20 45.52948 16.28471 18015 ft 330 kts 123°
2026-05-04 19:20 45.51728 16.31222 17573 ft 326 kts 123°
2026-05-04 19:20 45.50522 16.33937 17145 ft 322 kts 124°
2026-05-04 19:20 45.49329 16.36617 16725 ft 318 kts 124°
2026-05-04 19:21 45.48150 16.39263 16306 ft 315 kts 124°
2026-05-04 19:21 45.46979 16.41888 15892 ft 312 kts 124°
2026-05-04 19:21 45.45825 16.44493 15481 ft 309 kts 124°
2026-05-04 19:21 45.44668 16.47072 15074 ft 307 kts 124°
2026-05-04 19:22 45.43520 16.49635 14668 ft 306 kts 124°
2026-05-04 19:22 45.42380 16.52180 14260 ft 304 kts 123°
2026-05-04 19:22 45.41248 16.54723 13863 ft 304 kts 123°
2026-05-04 19:22 45.40118 16.57253 13437 ft 302 kts 124°
2026-05-04 19:23 45.39001 16.59733 13039 ft 300 kts 124°
2026-05-04 19:23 45.37877 16.62229 12646 ft 299 kts 124°
2026-05-04 19:23 45.36765 16.64717 12251 ft 298 kts 124°
2026-05-04 19:23 45.35652 16.67199 11850 ft 297 kts 124°
2026-05-04 19:24 45.34538 16.69665 11470 ft 296 kts 124°
2026-05-04 19:24 45.33423 16.72127 11075 ft 296 kts 124°
2026-05-04 19:24 45.32317 16.74595 10688 ft 295 kts 124°
2026-05-04 19:24 45.31218 16.77044 10301 ft 293 kts 124°
2026-05-04 19:25 45.30115 16.79475 9912 ft 292 kts 124°
2026-05-04 19:25 45.29014 16.81899 9503 ft 291 kts 124°
2026-05-04 19:25 45.27931 16.84314 9120 ft 289 kts 124°
2026-05-04 19:25 45.26843 16.86715 8740 ft 288 kts 124°
2026-05-04 19:26 45.25769 16.89073 8365 ft 288 kts 124°
2026-05-04 19:26 45.24688 16.91464 7985 ft 287 kts 124°
2026-05-04 19:26 45.23611 16.93845 7608 ft 284 kts 124°
2026-05-04 19:26 45.22479 16.96112 7232 ft 279 kts 133°
2026-05-04 19:27 45.21092 16.98013 6872 ft 276 kts 140°
2026-05-04 19:27 45.19724 16.99918 6506 ft 276 kts 135°
2026-05-04 19:27 45.18435 17.01948 6132 ft 275 kts 134°
2026-05-04 19:27 45.17125 17.03905 5766 ft 273 kts 136°
2026-05-04 19:28 45.15793 17.05805 5405 ft 272 kts 133°
2026-05-04 19:28 45.14799 17.08075 5051 ft 272 kts 116°
2026-05-04 19:28 45.14039 17.10497 4707 ft 267 kts 116°
2026-05-04 19:28 45.13260 17.12853 4369 ft 262 kts 116°
2026-05-04 19:29 45.12481 17.15170 3915 ft 262 kts 115°
2026-05-04 19:29 45.11681 17.17507 3415 ft 262 kts 116°
2026-05-04 19:29 45.10695 17.19613 2972 ft 260 kts 131°
2026-05-04 19:29 45.09358 17.21317 2536 ft 258 kts 142°
2026-05-04 19:30 45.07976 17.22810 2496 ft 243 kts 140°
2026-05-04 19:30 45.06665 17.24264 2492 ft 235 kts 142°
2026-05-04 19:30 45.05362 17.25572 2498 ft 227 kts 142°
2026-05-04 19:30 45.04090 17.26815 2489 ft 212 kts 149°
2026-05-04 19:31 45.02786 17.27453 2462 ft 186 kts 164°
2026-05-04 19:31 45.01644 17.27693 2383 ft 150 kts 169°
2026-05-04 19:31 45.00646 17.27906 2057 ft 139 kts 165°
2026-05-04 19:31 44.99715 17.28190 1650 ft 135 kts 163°
2026-05-04 19:32 44.98821 17.28502 1255 ft 128 kts 165°
2026-05-04 19:32 44.97938 17.28744 958 ft 129 kts 166°
2026-05-04 19:32 44.97054 17.28996 767 ft 129 kts 168°
2026-05-04 19:32 44.96175 17.29223 598 ft 128 kts 168°
2026-05-04 19:33 44.95309 17.29451 426 ft 125 kts 167°
2026-05-04 19:33 44.94548 17.29647 381 ft 90 kts 169°
2026-05-04 19:33 44.94169 17.29746 385 ft 31 kts 168°
2026-05-04 19:33 44.93972 17.29795 385 ft 34 kts 169°
2026-05-04 19:34 44.93780 17.29846 387 ft 23 kts 169°
2026-05-04 19:34 44.93631 17.29925 387 ft 21 kts 141°
2026-05-04 19:34 44.93556 17.30058 391 ft 14 kts 125°
2026-05-04 19:34 44.93504 17.30155 391 ft 10 kts 143°
2026-05-04 19:35 44.93443 17.30181 392 ft 9 kts 168°
2026-05-04 19:35 44.93375 17.30200 393 ft 11 kts 169°
2026-05-04 19:35 44.93298 17.30223 394 ft 11 kts 152°
2026-05-04 19:35 44.93304 17.30289 394 ft 2 kts
2026-05-04 19:36 44.93305 17.30289 394 ft 0 kts